Regional Weather Roundup
Issued by NWS

Home | Current Version | Previous Version | Text Only | Print | Product List | Glossary Off
Versions: 1 2 3 4 5 6 7 8 9 10 11 12 13 14 15 16 17 18 19 20 21 22 23 24 25 26 27 28 29 30 31 32 33 34 35 36 37 38 39 40 41 42 43 44 45 46 47 48 49 50

000
ASUS43 KLSX 300159
RWRMO

WEATHER SUMMARY FOR MISSOURI
NATIONAL WEATHER SERVICE SPRINGFIELD MO
900 PM CDT FRI AUG 29 2014

NOTE: "FAIR" INDICATES FEW OR NO CLOUDS BELOW 12,000 FEET WITH NO
       SIGNIFICANT WEATHER AND/OR OBSTRUCTIONS TO VISIBILITY.
       CURRENT SKY AND/OR WEATHER CONDITIONS ARE NOT AVAILABLE FOR
       CHILLICOTHE AND FARMINGTON.

MOZ001>031-035>038-043-044-053-054-300300-
...NORTHERN AND WESTERN MISSOURI...

CITY           SKY/WX    TMP DP  RH WIND       PRES   REMARKS
KANSAS CTY INT MOCLDY    69  67  93 S8        29.83R
KANSAS C DTWN  TSTM      73  66  78 NW7       29.83R
LEE`S SUMMIT   PTCLDY    78  67  68 SW5       29.85R
ST JOSEPH      MOCLDY    76  68  76 S13       29.80R
KIRKSVILLE     PTCLDY    71  68  90 S5        29.84R

$$
MOZ066>068-077>081-088>096-101>105-300300-
...SOUTHWEST MISSOURI...

CITY           SKY/WX    TMP DP  RH WIND       PRES   REMARKS
SPRINGFIELD    CLEAR     76  67  73 S13       29.92R
JOPLIN         PTCLDY    79  63  57 S9        29.89R

$$
MOZ032>034-039>042-045>050-055>058-069>072-300300-
...CENTRAL MISSOURI...

CITY           SKY/WX    TMP DP  RH WIND       PRES   REMARKS
COLUMBIA       CLOUDY    75  73  93 SE7       29.88R
JEFFERSON CITY CLOUDY    76  70  82 S3        29.87R
ROLLA          CLOUDY    74  67  78 S8        29.91R
SEDALIA        CLEAR     75  68  78 S5        29.86R
OSAGE BEACH    CLOUDY    73  70  88 S8        29.89R

$$
MOZ051-052-059>065-300300-
...EAST CENTRAL MISSOURI...

CITY           SKY/WX    TMP DP  RH WIND       PRES   REMARKS
ST LOUIS INTL  MOCLDY    84  66  54 S9G20     29.90R
SPIRIT OF STL  CLOUDY    78  69  73 SW3       29.88R
ST CHARLES     CLOUDY    75  72  90 CALM      29.88R

$$
MOZ072>076-082>087-097>100-106>115-300300-
...SOUTH CENTRAL AND SOUTHEAST MISSOURI...

CITY           SKY/WX    TMP DP  RH WIND       PRES   REMARKS
CAPE GIRARDEAU CLOUDY    75  71  87 S7        29.94R
FARMINGTON     CLOUDY    72  66  83 S8        29.96R
POPLAR BLUFF   TSTM      73  68  84 SW7       29.99R
WEST PLAINS    CLOUDY    75  68  78 S5        29.98R

$$


USA.gov is the U.S. government's official web portal to all federal, state and local government web resources and services.